Weather History for PAKW - October, 2012

Change the Weather History Date:

Monday, October 8, 2012

  Actual Average Record
Temperature  
Mean Temperature 48 °F -  
Max Temperature 60 °F 51 °F 60 °F (2012)
Min Temperature 39 °F 40 °F 34 °F (2006)
Degree Days  
Heating Degree Days 17    
Moisture  
Dew Point 42 °F    
Average Humidity 92    
Maximum Humidity 100    
Minimum Humidity 72    
Precipitation  
Precipitation 0.01 in - - ()
Sea Level Pressure  
Sea Level Pressure 30.10 in    
Wind  
Wind Speed 1 mph (SW)    
Max Wind Speed 8 mph    
Max Gust Speed -    
Visibility 4 miles    
Events Fog    
Averages and records for this station are not official NWS values.
T = Trace of Precipitation, MM = Missing Value Source: NWS Daily Summary

Daily Weather History Graph

Daily Weather History Graph

Search for Another Location

Airport or City:

Trip Planner

Search our weather history database for the weather conditions in past years. The results will help you decide how hot, cold, wet, or windy it might be!

Date:

Astronomy

Oct. 08, 2012 Rise Set
Actual Time 7:10 AM AKDT 6:08 PM AKDT
Civil Twilight 6:33 AM AKDT 6:44 PM AKDT
Nautical Twilight 5:50 AM AKDT 7:27 PM AKDT
Astronomical Twilight 5:07 AM AKDT 8:10 PM AKDT
Moon 11:55 PM AKDT (10/8) 3:04 PM AKDT (10/8)
Length of Visible Light 12h 11m
Length of Day
10h 57m
Last Quarter, 45% of the Moon is Illuminated
Oct 8
Last Quarter
Oct 15
New
Oct 21
First Quarter
Oct 29
Full
Nov 6
Last Quarter

Hourly Weather History & Observations

Time (AKDT) Temp. Windchill Dew Point Humidity Pressure Visibility Wind Dir Wind Speed Gust Speed Precip Events Conditions
12:53 AM 44.1 °F - 43.0 °F 96% 30.15 in 8.0 mi Calm Calm - N/A   Clear
1:11 AM 44.6 °F - 42.8 °F 93% 30.15 in 10.0 mi Calm Calm - N/A   Partly Cloudy
1:23 AM 42.8 °F - 41.0 °F 93% 30.14 in 1.8 mi Calm Calm - N/A   Scattered Clouds
1:26 AM 42.8 °F - 42.8 °F 100% 30.14 in 1.2 mi Calm Calm - N/A   Mostly Cloudy
1:53 AM 43.0 °F - 42.1 °F 97% 30.14 in 0.8 mi Calm Calm - N/A   Mist
2:02 AM 41.0 °F - 39.2 °F 93% 30.14 in 1.2 mi Calm Calm - N/A   Overcast
2:12 AM 42.8 °F - 41.0 °F 93% 30.14 in 0.2 mi Calm Calm - N/A Fog Fog
2:48 AM 41.0 °F - 39.2 °F 93% 30.14 in 1.5 mi Calm Calm - N/A   Overcast
2:49 AM 42.1 °F - 39.9 °F 92% 30.14 in 1.5 mi Calm Calm - N/A   Overcast
2:56 AM 41.0 °F - 41.0 °F 100% 30.13 in 0.8 mi Calm Calm - N/A   Mist
3:17 AM 42.8 °F - 41.0 °F 93% 30.13 in 1.5 mi Calm Calm - N/A   Mostly Cloudy
3:19 AM 42.8 °F - 41.0 °F 93% 30.13 in 3.0 mi Calm Calm - N/A   Mostly Cloudy
3:36 AM 41.0 °F - 39.2 °F 93% 30.13 in 0.8 mi Calm Calm - N/A   Mist
3:53 AM 41.0 °F - 39.9 °F 96% 30.13 in 0.5 mi Calm Calm - N/A Fog Fog
4:27 AM 41.0 °F - 39.2 °F 93% 30.12 in 1.5 mi Calm Calm - N/A   Mostly Cloudy
4:30 AM 39.2 °F - 39.2 °F 100% 30.12 in 3.0 mi Calm Calm - N/A   Mostly Cloudy
4:34 AM 41.0 °F - 39.2 °F 93% 30.12 in 1.5 mi Calm Calm - N/A   Mostly Cloudy
4:38 AM 39.2 °F - 39.2 °F 100% 30.12 in 0.8 mi Calm Calm - N/A   Mist
4:53 AM 39.9 °F - 39.0 °F 97% 30.12 in 0.2 mi Calm Calm - N/A Fog Fog
5:13 AM 41.0 °F - 39.2 °F 93% 30.12 in 1.5 mi Calm Calm - N/A   Overcast
5:22 AM 41.0 °F - 39.2 °F 93% 30.11 in 0.8 mi Calm Calm - N/A   Mist
5:53 AM 39.0 °F - 37.9 °F 96% 30.12 in 0.5 mi Calm Calm - N/A Fog Fog
6:18 AM 39.2 °F - 39.2 °F 100% 30.11 in 1.2 mi Calm Calm - N/A   Mostly Cloudy
6:25 AM 41.0 °F - 39.2 °F 93% 30.11 in 2.0 mi Calm Calm - N/A   Mostly Cloudy
6:30 AM 39.2 °F - 39.2 °F 100% 30.11 in 1.2 mi Calm Calm - N/A   Mostly Cloudy
6:38 AM 39.2 °F - 39.2 °F 100% 30.11 in 0.5 mi Calm Calm - N/A Fog Fog
6:53 AM 39.9 °F - 39.0 °F 97% 30.11 in 0.5 mi Calm Calm - N/A Fog Fog
7:53 AM 39.9 °F - 39.0 °F 97% 30.11 in 0.2 mi Calm Calm - N/A Fog Fog
8:53 AM 42.1 °F - 41.0 °F 96% 30.11 in 0.2 mi Calm Calm - N/A Fog Fog
9:12 AM 44.6 °F - 42.8 °F 93% 30.10 in 1.8 mi Calm Calm - N/A   Mostly Cloudy
9:14 AM 44.6 °F 43.1 °F 42.8 °F 93% 30.10 in 3.0 mi ENE 3.5 mph - N/A   Mostly Cloudy
9:26 AM 46.4 °F - 44.6 °F 93% 30.10 in 10.0 mi Calm Calm - N/A   Scattered Clouds
9:53 AM 46.0 °F 44.8 °F 45.0 °F 96% 30.10 in 10.0 mi WNW 3.5 mph - N/A   Clear
10:53 AM 52.0 °F - 48.0 °F 86% 30.10 in 10.0 mi WNW 3.5 mph - N/A   Clear
11:53 AM 55.9 °F - 48.0 °F 75% 30.09 in 10.0 mi WNW 4.6 mph - N/A   Clear
12:53 PM 57.9 °F - 48.9 °F 72% 30.08 in 10.0 mi SW 8.1 mph - N/A   Clear
1:53 PM 57.9 °F - 48.9 °F 72% 30.07 in 10.0 mi SSW 4.6 mph - N/A   Clear
2:53 PM 57.0 °F - 48.0 °F 72% 30.07 in 10.0 mi WSW 6.9 mph - N/A   Clear
3:53 PM 55.9 °F - 48.0 °F 75% 30.06 in 10.0 mi Variable 3.5 mph - N/A   Clear
4:53 PM 55.0 °F - 46.9 °F 74% 30.05 in 10.0 mi South 3.5 mph - N/A   Clear
5:53 PM 51.1 °F - 46.9 °F 86% 30.05 in 10.0 mi South 3.5 mph - N/A   Clear
6:53 PM 48.9 °F - 46.0 °F 90% 30.06 in 10.0 mi South 3.5 mph - N/A   Clear
7:53 PM 46.9 °F - 45.0 °F 93% 30.06 in 10.0 mi South 4.6 mph - N/A   Clear
8:53 PM 45.0 °F 43.5 °F 43.0 °F 93% 30.06 in 10.0 mi SSE 3.5 mph - N/A   Clear
9:53 PM 44.1 °F - 42.1 °F 93% 30.07 in 10.0 mi Calm Calm - 0.01 in   Clear
10:53 PM 44.1 °F - 43.0 °F 96% 30.06 in 9.0 mi Calm Calm - N/A   Clear
11:27 PM 44.6 °F - 42.8 °F 93% 30.05 in 5.0 mi Calm Calm - N/A   Clear
11:43 PM 44.6 °F - 42.8 °F 93% 30.05 in 5.0 mi Calm Calm - N/A   Partly Cloudy